GW0029 Weather Reports


Display with metric or nautical units.
time (UTC)temp
F
wind
direction
speed
MPH
gust
MPH
rain 1hr
in
rain 24hr
in
rain mn
in
humidity
%
barometer
mb
20260901230503 60 277 7.0 12.0 0.00 0.00 0.00 86 1012.0
20260901230005 60 270 7.0 14.0 0.00 0.00 0.00 87 1012.0
20260901225504 60 267 7.0 14.0 0.00 0.00 0.00 87 1012.0
20260901224504 60 276 6.0 18.0 0.00 0.00 0.00 87 1012.0
20260901224005 60 279 5.0 11.0 0.00 0.00 0.00 88 1011.0
20260901223503 60 275 6.0 15.0 0.00 0.00 0.00 88 1011.0
20260901223006 60 272 7.0 15.0 0.00 0.00 0.00 88 1011.0
20260901222005 60 278 5.0 10.0 0.00 0.00 0.00 88 1012.0
20260901221503 60 278 7.0 12.0 0.00 0.00 0.00 88 1012.0
20260901221005 60 272 7.0 14.0 0.00 0.00 0.00 87 1011.0
20260901220503 60 268 7.0 14.0 0.00 0.00 0.00 87 1011.0
20260901220005 60 271 6.0 13.0 0.00 0.00 0.00 87 1011.0
20260901215504 60 282 6.0 14.0 0.00 0.00 0.00 88 1012.0
20260901215005 60 273 8.0 14.0 0.00 0.00 0.00 88 1012.0
20260901214504 60 260 7.0 12.0 0.00 0.00 0.00 88 1012.0
20260901214005 60 266 7.0 15.0 0.00 0.00 0.00 88 1012.0
20260901213005 60 267 7.0 17.0 0.00 0.00 0.00 88 1012.0
20260901212503 60 272 7.0 17.0 0.00 0.00 0.00 88 1012.0
20260901211504 60 265 7.0 12.0 0.00 0.00 0.00 88 1012.0
20260901210503 60 256 2.0 10.0 0.00 0.00 0.00 89 1012.0
20260901210005 60 248 0.0 5.0 0.00 0.00 0.00 90 1012.0
20260901205505 60 260 0.0 6.0 0.00 0.00 0.00 90 1012.0
20260901205005 60 260 0.0 6.0 0.00 0.00 0.00 89 1012.0
20260901204005 60 264 1.0 6.0 0.00 0.00 0.00 89 1012.0
20260901203505 60 253 2.0 6.0 0.00 0.00 0.00 89 1012.0
20260901203005 60 258 2.0 7.0 0.00 0.00 0.00 89 1012.0
20260901202004 60 258 3.0 8.0 0.00 0.00 0.00 89 1012.0
20260901201504 60 254 3.0 8.0 0.00 0.00 0.00 89 1012.0
20260901201005 60 263 4.0 8.0 0.00 0.00 0.00 89 1012.0
20260901200005 60 263 4.0 8.0 0.00 0.00 0.00 89 1012.0
20260901195504 60 270 4.0 10.0 0.00 0.00 0.00 89 1012.0
20260901195005 60 270 4.0 10.0 0.00 0.00 0.00 89 1012.0
20260901194503 61 265 4.0 9.0 0.00 0.00 0.00 88 1012.0
20260901194005 61 264 4.0 11.0 0.00 0.00 0.00 88 1012.0
20260901193503 61 271 4.0 11.0 0.00 0.00 0.00 88 1012.0
20260901193004 61 285 4.0 8.0 0.00 0.00 0.00 88 1012.0
20260901192503 61 277 4.0 8.0 0.00 0.00 0.00 88 1012.0
20260901192005 60 266 4.0 8.0 0.00 0.00 0.00 88 1012.0
20260901191504 60 271 4.0 8.0 0.00 0.00 0.00 88 1012.0
20260901191005 61 266 3.0 8.0 0.00 0.00 0.00 87 1012.0
20260901190504 60 272 3.0 10.0 0.00 0.00 0.00 87 1012.0
20260901190005 60 278 5.0 10.0 0.00 0.00 0.00 87 1012.0
20260901185503 60 273 5.0 12.0 0.00 0.00 0.00 87 1012.0
20260901185005 60 275 3.0 12.0 0.00 0.00 0.00 87 1012.0
20260901184503 60 277 2.0 6.0 0.00 0.00 0.00 87 1012.0
20260901184005 60 273 3.0 8.0 0.00 0.00 0.00 87 1012.0
20260901183504 61 282 3.0 8.0 0.00 0.00 0.00 87 1012.0
20260901182504 61 255 1.0 5.0 0.00 0.00 0.00 87 1011.0
20260901182005 61 259 2.0 9.0 0.00 0.00 0.00 87 1011.0
20260901181004 62 273 6.0 12.0 0.00 0.00 0.00 86 1011.0
20260901180503 62 277 5.0 10.0 0.00 0.00 0.00 86 1011.0
20260901180005 62 282 2.0 8.0 0.00 0.00 0.00 86 1011.0
20260901175504 62 277 1.0 9.0 0.00 0.00 0.00 87 1011.0
20260901175005 62 278 2.0 9.0 0.00 0.00 0.00 86 1011.0
20260901173005 63 286 1.0 5.0 0.00 0.00 0.00 85 1011.0
20260901172504 63 271 0.0 5.0 0.00 0.00 0.00 85 1011.0
20260901172005 63 283 0.0 5.0 0.00 0.00 0.00 85 1011.0
20260901171504 63 0 0.0 0.0 0.00 0.00 0.00 86 1011.0
20260901171005 63 0 0.0 0.0 0.00 0.00 0.00 85 1011.0
20260901170504 63 276 0.0 6.0 0.00 0.00 0.00 85 1011.0
20260901170005 64 267 0.0 6.0 0.00 0.00 0.00 84 1011.0
20260901165504 64 272 1.0 10.0 0.00 0.00 0.00 85 1011.0
20260901165005 64 277 2.0 10.0 0.00 0.00 0.00 85 1011.0
20260901164504 64 290 2.0 6.0 0.00 0.00 0.00 85 1011.0
20260901164005 64 273 2.0 8.0 0.00 0.00 0.00 85 1011.0
20260901163503 64 258 3.0 8.0 0.00 0.00 0.00 85 1011.0
20260901163005 64 268 1.0 7.0 0.00 0.00 0.00 85 1011.0
20260901162503 64 258 1.0 4.0 0.00 0.00 0.00 85 1011.0
20260901162005 64 252 1.0 6.0 0.00 0.00 0.00 85 1011.0
20260901161504 64 250 2.0 7.0 0.00 0.00 0.00 85 1011.0
20260901161005 65 254 2.0 8.0 0.00 0.00 0.00 84 1010.0
20260901160503 65 253 2.0 8.0 0.00 0.00 0.00 84 1010.0
20260901160004 65 265 3.0 8.0 0.00 0.00 0.00 84 1010.0
20260901155503 65 279 5.0 10.0 0.00 0.00 0.00 83 1010.0
20260901155005 65 290 5.0 12.0 0.00 0.00 0.00 82 1010.0
20260901154005 66 284 5.0 10.0 0.00 0.00 0.00 82 1010.0
20260901153504 66 267 3.0 10.0 0.00 0.00 0.00 83 1010.0
20260901153005 66 261 3.0 8.0 0.00 0.00 0.00 83 1010.0
20260901152503 66 275 3.0 10.0 0.00 0.00 0.00 83 1010.0
20260901152005 66 279 3.0 10.0 0.00 0.00 0.00 82 1010.0
20260901151504 66 281 4.0 8.0 0.00 0.00 0.00 82 1010.0
20260901151005 66 261 3.0 8.0 0.00 0.00 0.00 82 1010.0
20260901150504 66 270 2.0 7.0 0.00 0.00 0.00 83 1010.0
20260901150005 66 281 4.0 12.0 0.00 0.00 0.00 82 1010.0
20260901145504 66 284 6.0 12.0 0.00 0.00 0.00 80 1010.0
20260901144503 67 270 3.0 9.0 0.00 0.00 0.00 82 1010.0
20260901143503 66 268 3.0 8.0 0.00 0.00 0.00 80 1010.0
20260901143005 67 261 4.0 11.0 0.00 0.00 0.00 82 1010.0
20260901142505 67 275 6.0 11.0 0.00 0.00 0.00 81 1010.0
20260901142005 67 269 5.0 9.0 0.00 0.00 0.00 79 1010.0
20260901141504 67 268 4.0 8.0 0.00 0.00 0.00 81 1010.0
20260901141005 67 276 4.0 8.0 0.00 0.00 0.00 81 1010.0
20260901140503 67 276 2.0 5.0 0.00 0.00 0.00 83 1010.0
20260901140004 66 265 2.0 10.0 0.00 0.00 0.00 84 1010.0
20260901135503 66 268 2.0 10.0 0.00 0.00 0.00 83 1010.0
20260901134503 66 259 2.0 6.0 0.00 0.00 0.00 82 1010.0
20260901134004 67 266 3.0 11.0 0.00 0.00 0.00 82 1010.0
20260901133503 67 265 5.0 11.0 0.00 0.00 0.00 82 1010.0
20260901132005 66 261 2.0 10.0 0.00 0.00 0.00 83 1010.0
20260901131504 66 261 3.0 10.0 0.00 0.00 0.00 83 1010.0
20260901130503 67 271 2.0 10.0 0.00 0.00 0.00 82 1010.0
20260901130005 67 275 2.0 6.0 0.00 0.00 0.00 84 1010.0
20260901125504 66 279 2.0 6.0 0.00 0.00 0.00 83 1010.0
20260901125005 66 276 4.0 10.0 0.00 0.00 0.00 83 1010.0
20260901124503 66 278 5.0 10.0 0.00 0.00 0.00 83 1010.0
20260901124005 66 271 4.0 10.0 0.00 0.00 0.00 82 1010.0
20260901123504 66 271 3.0 9.0 0.00 0.00 0.00 83 1010.0
20260901123005 66 279 3.0 9.0 0.00 0.00 0.00 83 1010.0
20260901122504 67 258 3.0 9.0 0.00 0.00 0.00 84 1010.0
20260901122005 67 268 4.0 14.0 0.00 0.00 0.00 84 1010.0
20260901121504 66 281 4.0 14.0 0.00 0.00 0.00 83 1010.0
20260901121005 66 281 4.0 10.0 0.00 0.00 0.00 83 1010.0
20260901120504 66 282 6.0 14.0 0.00 0.00 0.00 82 1010.0
20260901120005 66 274 6.0 14.0 0.00 0.00 0.00 82 1010.0
20260901115005 66 275 5.0 10.0 0.00 0.00 0.00 84 1009.0
20260901114503 66 268 6.0 10.0 0.00 0.00 0.00 83 1009.0
20260901114006 66 267 6.0 10.0 0.00 0.00 0.00 82 1009.0
20260901113004 67 280 5.0 11.0 0.00 0.00 0.00 82 1009.0
20260901112504 67 285 4.0 12.0 0.00 0.00 0.00 84 1009.0
20260901112005 66 295 4.0 12.0 0.00 0.00 0.00 85 1009.0
20260901111504 66 294 4.0 9.0 0.00 0.05 0.00 85 1009.0
20260901111004 66 265 4.0 11.0 0.00 0.05 0.00 86 1010.0
20260901110504 66 267 4.0 11.0 0.00 0.05 0.00 85 1010.0
20260901110005 66 280 5.0 11.0 0.00 0.05 0.00 85 1010.0
20260901105504 66 271 7.0 12.0 0.00 0.05 0.00 85 1010.0
20260901105005 66 270 5.0 12.0 0.00 0.05 0.00 85 1010.0
20260901104504 66 279 3.0 13.0 0.00 0.05 0.00 86 1010.0
20260901104004 66 284 4.0 13.0 0.00 0.05 0.00 85 1011.0
20260901103504 66 286 5.0 12.0 0.00 0.05 0.00 86 1011.0
20260901102504 66 273 4.0 12.0 0.00 0.05 0.00 87 1010.0
20260901102005 66 276 4.0 11.0 0.00 0.05 0.00 87 1010.0
20260901101503 66 273 3.0 11.0 0.00 0.05 0.00 87 1010.0
20260901101004 66 274 4.0 9.0 0.00 0.05 0.00 86 1010.0
20260901100503 66 277 3.0 9.0 0.00 0.05 0.00 86 1010.0
20260901100005 66 271 4.0 12.0 0.00 0.05 0.00 86 1010.0
20260901095503 66 272 5.0 12.0 0.00 0.05 0.00 86 1009.0
20260901095005 66 266 3.0 8.0 0.00 0.05 0.00 87 1009.0
20260901094504 66 267 4.0 12.0 0.00 0.05 0.00 87 1009.0
20260901093503 66 258 4.0 11.0 0.00 0.05 0.00 87 1009.0
20260901093005 66 270 3.0 10.0 0.00 0.05 0.00 87 1009.0
20260901092005 66 271 5.0 13.0 0.00 0.05 0.00 87 1008.0
20260901091005 66 280 3.0 10.0 0.00 0.05 0.00 88 1008.0
20260901090503 66 272 4.0 10.0 0.00 0.05 0.00 88 1008.0
20260901090005 65 265 4.0 12.0 0.00 0.05 0.00 89 1008.0
20260901085504 65 263 4.0 12.0 0.00 0.05 0.00 89 1008.0
20260901085005 65 257 3.0 9.0 0.00 0.05 0.00 89 1008.0
20260901084504 65 261 2.0 8.0 0.00 0.05 0.00 89 1008.0
20260901084005 65 265 3.0 8.0 0.00 0.05 0.00 89 1008.0
20260901083504 65 262 5.0 10.0 0.00 0.05 0.00 89 1008.0
20260901083005 65 261 5.0 10.0 0.00 0.05 0.00 89 1008.0
20260901082503 65 265 3.0 8.0 0.00 0.05 0.00 89 1006.9
20260901082005 65 287 2.0 8.0 0.00 0.05 0.00 89 1006.9
20260901081504 64 284 2.0 6.0 0.00 0.05 0.00 89 1006.9
20260901080009 64 267 4.0 8.0 0.00 0.05 0.00 89 1008.0
20260901075503 64 266 4.0 11.0 0.00 0.05 0.00 92 1009.0
20260901075005 64 271 3.0 11.0 0.00 0.05 0.00 93 1009.0
20260901074504 64 261 4.0 11.0 0.00 0.05 0.00 94 1009.0
20260901074005 64 253 6.0 11.0 0.00 0.05 0.00 94 1008.0
20260901073503 64 258 4.0 10.0 0.00 0.05 0.00 94 1008.0
20260901073005 63 283 3.0 9.0 0.00 0.05 0.00 95 1008.0
20260901072503 63 269 3.0 9.0 0.00 0.05 0.00 96 1008.0
20260901072005 63 269 3.0 8.0 0.00 0.05 0.00 96 1008.0
20260901071503 63 279 2.0 8.0 0.00 0.05 0.00 96 1008.0
20260901071004 63 280 1.0 6.0 0.00 0.05 0.00 97 1008.0
20260901070005 63 257 3.0 10.0 0.00 0.05 0.00 97 1008.0
20260901065503 63 257 3.0 10.0 0.00 0.05 0.00 97 1008.0
20260901064503 62 267 4.0 9.0 0.00 0.05 0.00 100 1008.0
20260901064004 62 258 4.0 9.0 0.00 0.05 0.00 100 1008.0
20260901063504 62 254 2.0 7.0 0.00 0.05 0.00 100 1008.0
20260901063005 62 262 2.0 7.0 0.00 0.05 0.00 100 1008.0
20260901062503 61 253 2.0 7.0 0.00 0.05 0.00 100 1006.9
20260901062005 61 258 2.0 8.0 0.00 0.05 0.00 100 1006.9
20260901061504 60 268 3.0 8.0 0.00 0.05 0.00 100 1006.9
20260901061005 60 273 3.0 8.0 0.00 0.05 0.00 100 1006.9
20260901055005 60 266 3.0 8.0 0.00 0.05 0.00 100 1006.9
20260901054503 60 263 3.0 8.0 0.00 0.05 0.00 100 1006.9
20260901054004 60 261 2.0 5.0 0.00 0.05 0.00 100 1006.9
20260901053504 60 264 1.0 5.0 0.00 0.05 0.00 100 1006.9
20260901053005 60 242 0.0 3.0 0.00 0.05 0.00 100 1006.9
20260901052503 60 0 0.0 0.0 0.00 0.05 0.00 100 1006.9
20260901052005 60 0 0.0 0.0 0.00 0.05 0.00 100 1006.9
20260901051004 60 292 0.0 3.0 0.00 0.05 0.00 100 1006.9
20260901050503 60 270 1.0 4.0 0.00 0.05 0.00 100 1006.9
20260901050005 59 267 0.0 4.0 0.00 0.05 0.00 100 1006.9
20260901045503 59 0 0.0 0.0 0.00 0.05 0.00 100 1005.9
20260901045004 59 0 0.0 0.0 0.00 0.05 0.00 100 1005.9
20260901044506 59 0 0.0 0.0 0.00 0.05 0.00 100 1005.9
20260901044005 59 0 0.0 0.0 0.00 0.05 0.00 100 1006.9
20260901043503 59 0 0.0 0.0 0.00 0.05 0.00 100 1006.9
20260901043005 58 0 0.0 0.0 0.00 0.05 0.00 100 1006.9
20260901042503 58 0 0.0 0.0 0.00 0.05 0.00 100 1006.9
20260901042004 58 0 0.0 0.0 0.00 0.05 0.00 100 1006.9
20260901040504 58 0 0.0 0.0 0.00 0.05 0.00 100 1006.9
20260901040005 58 0 0.0 0.0 0.00 0.05 0.00 100 1006.9
20260901035503 58 0 0.0 0.0 0.00 0.05 0.00 100 1006.9
20260901035004 58 0 0.0 0.0 0.00 0.05 0.00 100 1006.9
20260901034504 58 0 0.0 0.0 0.00 0.05 0.00 100 1006.9
20260901034005 58 0 0.0 0.0 0.00 0.05 0.00 100 1005.9
20260901033005 58 0 0.0 0.0 0.00 0.05 0.00 100 1005.9
20260901032503 57 0 0.0 0.0 0.00 0.05 0.00 100 1005.9
20260901031504 57 0 0.0 0.0 0.00 0.05 0.00 100 1005.9
20260901031005 57 0 0.0 0.0 0.00 0.05 0.00 100 1005.9
20260901025505 58 0 0.0 0.0 0.00 0.05 0.00 100 1005.9
20260901025005 58 0 0.0 0.0 0.00 0.05 0.00 100 1005.9
20260901024503 58 0 0.0 0.0 0.00 0.05 0.00 100 1005.9
20260901024005 58 0 0.0 0.0 0.00 0.05 0.00 100 1005.9
20260901023503 58 0 0.0 0.0 0.00 0.05 0.00 100 1005.9
20260901023004 58 0 0.0 0.0 0.00 0.05 0.00 100 1005.9
20260901022503 58 0 0.0 0.0 0.00 0.05 0.00 100 1004.9
20260901022005 59 248 0.0 1.0 0.00 0.05 0.00 100 1004.9
20260901021503 59 248 0.0 1.0 0.00 0.05 0.00 100 1004.9
20260901021004 59 0 0.0 0.0 0.00 0.05 0.00 100 1005.9
20260901020504 59 0 0.0 0.0 0.00 0.05 0.00 100 1005.9
20260901020004 59 0 0.0 0.0 0.00 0.05 0.00 100 1005.9
20260901015504 59 0 0.0 0.0 0.00 0.05 0.00 100 1005.9
20260901015004 59 0 0.0 0.0 0.00 0.05 0.00 100 1005.9
20260901013503 59 0 0.0 0.0 0.00 0.05 0.00 100 1005.9
20260901012004 59 230 0.0 5.0 0.00 0.05 0.00 100 1005.9
20260901011504 60 0 0.0 0.0 0.00 0.05 0.00 100 1005.9
20260901011005 60 232 0.0 3.0 0.00 0.05 0.00 100 1004.9
20260901010504 60 233 0.0 3.0 0.00 0.05 0.00 100 1004.9
20260901010004 60 1 0.0 2.0 0.00 0.05 0.00 100 1004.9
20260901005503 60 242 0.0 3.0 0.00 0.05 0.00 100 1006.9
20260901005004 60 242 0.0 3.0 0.00 0.05 0.00 100 1006.9
20260901004504 60 277 0.0 4.0 0.00 0.05 0.00 100 1006.9
20260901004004 60 275 1.0 7.0 0.00 0.05 0.00 100 1005.9
20260901003503 60 261 1.0 7.0 0.00 0.05 0.00 100 1005.9
20260901003004 60 237 1.0 7.0 0.00 0.05 0.00 100 1005.9
20260901002504 60 229 2.0 7.0 0.00 0.05 0.00 100 1005.9
20260901002004 60 244 2.0 6.0 0.00 0.05 0.00 100 1005.9
20260901001503 60 246 2.0 6.0 0.00 0.05 0.00 100 1005.9
20260901001005 60 229 1.0 5.0 0.00 0.05 0.00 100 1005.9
20260901000004 60 109 0.0 3.0 0.00 0.05 0.00 100 1005.9
20260831235004 60 282 1.0 4.0 0.00 0.05 0.00 100 1005.9
20260831234504 60 225 1.0 6.0 0.00 0.05 0.00 100 1005.9
20260831233504 60 230 0.0 4.0 0.00 0.05 0.00 100 1005.9
20260831232503 59 230 0.0 4.0 0.00 0.05 0.00 97 1005.9
20260831232004 59 242 0.0 4.0 0.00 0.05 0.00 97 1005.9
20260831231503 59 158 0.0 1.0 0.00 0.05 0.00 100 1005.9
20260831231005 59 238 0.0 2.0 0.00 0.05 0.00 100 1005.9